Location: Austin
(30.3000°N, 97.7500°W)
Time: 12:36:03
(UTC-05:00)

SL-08 R/B - Pass Details

Date: 05 September 2024
Orbit: 670 x 732 km, 98.5° (Epoch: 11 September)

Event Time Altitude Azimuth Distance (km) Brightness Sun altitude
Rises 20:20:30 0° 13° (NNE) 3,152 6.7 -7.7°
Reaches altitude 10° 20:22:47 10° 15° (NNE) 2,231 5.9 -8.2°
Maximum altitude 20:27:42 81° 103° (ESE) 745 3.4 -9.2°
Drops below altitude 10° 20:32:36 10° 190° (S) 2,221 5.9 -10.3°
Sets 20:34:52 0° 191° (SSW) 3,137 6.7 -10.8°
